Content
SEND FEEDBACK

Daily
Averages
Monthly
Summary
United States of America

NEWARK, NEW JERSEY


Home > North America > United States > New Jersey
Elevation: 30 feet     Latitude: 40 42N     Longitude: 074 10W

WEATHER
 
SELECT A DAY
Number of Records: 189,888;   Date Range: 1/1/95 - 9/18/14
 
SHARE

PRINT THIS DATA

[ ← Previous Day ]
WEATHER ALMANAC - FEBRUARY 20, 2013
[ Next Day → ]
[ °C ]   °F
Weather ElementAverageHighLow
Temperature30.7 °F35.1 °F (1:51 am)26.1 °F (10:51 pm)
Dewpoint12.1 °F21.9 °F (1:51 am)8.1 °F (2:51 pm)
Humidity46.6 %61 % (2:51 am)35 % (2:51 pm)
Barometer29.88 in30.00 in (11:51 pm)29.75 in (1:51 am)
Wind Speed19.7 mph26.5 mph (9:51 am)
Wind Gust35.7 mph (8:51 am)
Weather ElementAverage
Visibility10 mi
Wind DirectionWNW (278.7 °)

Weather ElementTotal
Precipitation---
Heating Degree Days34.4 (Base 65)
Averaged from 23 records on February 20, 2013
WEATHER CONDITIONS BREAKOUT
WIND DIRECTION BREAKOUT
WEATHER BY HOUR - FEBRUARY 20, 2013
[ °C ]   °F
Local TimeTemperatureDewpointHumidityBarometerVisibilityWind DirectionWind SpeedGust SpeedPrecipitationEventsConditions
1:51 AM35.1 °F21.9 °F59 %29.75 in10.0 miWest (260°)13.8 mphScattered Clouds
2:51 AM34.0 °F21.9 °F61 %29.76 in10.0 miWest (260°)16.1 mph26.5 mphPartly Cloudy
3:51 AM32.0 °F17.1 °F54 %29.77 in10.0 miWNW (290°)21.9 mph29.9 mphPartly Cloudy
4:51 AM30.9 °F15.1 °F52 %29.78 in10.0 miWest (280°)15.0 mph21.9 mphPartly Cloudy
5:51 AM30.9 °F15.1 °F52 %29.80 in10.0 miWest (270°)20.7 mph26.5 mphClear
6:51 AM30.9 °F16.0 °F54 %29.83 in10.0 miWSW (250°)17.3 mph24.2 mphScattered Clouds
7:51 AM30.9 °F14.0 °F50 %29.86 in10.0 miWest (280°)25.3 mph34.5 mphScattered Clouds
8:51 AM32.0 °F10.9 °F42 %29.87 in10.0 miWest (280°)17.3 mph35.7 mphScattered Clouds
9:51 AM32.0 °F10.9 °F42 %29.87 in10.0 miWest (280°)26.5 mph33.4 mphScattered Clouds
10:51 AM33.1 °F12.9 °F43 %29.87 in10.0 miWest (270°)21.9 mph27.6 mphMostly Cloudy
11:51 AM32.0 °F10.0 °F40 %29.86 in10.0 miNW (310°)21.9 mph33.4 mphMostly Cloudy
12:51 PM32.0 °F9.0 °F38 %29.86 in10.0 miWest (260°)19.6 mph27.6 mphMostly Cloudy
1:51 PM33.1 °F10.0 °F38 %29.86 in10.0 miWest (280°)23.0 mph31.1 mphMostly Cloudy
2:51 PM33.1 °F8.1 °F35 %29.86 in10.0 miWest (270°)25.3 mph32.2 mphMostly Cloudy
3:51 PM32.0 °F8.1 °F37 %29.88 in10.0 miWest (270°)24.2 mph35.7 mphMostly Cloudy
4:51 PM30.0 °F8.1 °F40 %29.90 in10.0 miWest (270°)19.6 mph29.9 mphMostly Cloudy
5:51 PM28.9 °F10.0 °F45 %29.92 in10.0 miWest (280°)24.2 mph31.1 mphMostly Cloudy
6:51 PM30.0 °F10.0 °F43 %29.95 in10.0 miWest (280°)20.7 mph27.6 mphMostly Cloudy
7:51 PM28.0 °F12.0 °F51 %29.96 in10.0 miWNW (290°)19.6 mph27.6 mphMostly Cloudy
8:51 PM27.0 °F12.0 °F53 %29.96 in10.0 miWNW (300°)11.5 mph26.5 mphScattered Clouds
9:51 PM26.6 °F8.6 °F47 %29.97 in10.0 miWNW (290°)15.0 mphPartly Cloudy
10:51 PM26.1 °F8.1 °F47 %29.99 in10.0 miWNW (290°)13.8 mph23.0 mphPartly Cloudy
11:51 PM26.1 °F9.0 °F49 %30.00 in10.0 miWNW (300°)18.4 mph26.5 mphScattered Clouds
Hourly data recorded from KEWR, located miles away from Newark, New Jersey







STORIES FROM OUR PARTNERS